Hourly Data Report for June 02, 2020

FISHER BRANCH (AUT)
MANITOBA
Current Station Operator: ECCC - MSC

51°05'00.100" N
97°33'16.200" W
253.00 m
50309J6
71442
WSZ

Download Data

Hourly Data (June 2020)
Hourly Data Report for June 2, 2020
TIME
LST
Temp Definition
°C
Dew Point Definition
°C
Rel Hum Definition
%
Precip. Amount Definition
mm

Wind Dir Definition
10's deg

Wind Spd Definition
km/h
Visibility Definition
km
Stn Press Definition
kPa
Hmdx Definition


Wind Chill Definition


Weather Definition


00:00 15.6 9.1 65 0.0 29 6   97.66     LegendNANA
01:00 14.9 9.9 72 0.0 27 6   97.68     LegendNANA
02:00 15.4 9.6 68 0.0 27 8   97.75     LegendNANA
03:00 14.6 9.3 70 0.0 27 9   97.77     LegendNANA
04:00 13.4 9.1 75 0.0 26 12   97.81     LegendNANA
05:00 12.5 8.7 78 0.0 28 9   97.89     LegendNANA
06:00 12.9 9.0 77 0.0 26 7   97.95     LegendNANA
07:00 16.7 10.2 66 0.0 30 14   97.98     LegendNANA
08:00 18.2 10.4 61 0.0 30 13   97.99     LegendNANA
09:00 19.5 9.9 54 0.0 30 10   97.99     LegendNANA
10:00 21.3 9.0 46 0.0 28 10   98.00     LegendNANA
11:00 22.6 7.1 37 0.0 25 15   98.00     LegendNANA
12:00 24.3 7.0 33 0.0 24 19   97.94     LegendNANA
13:00 25.3 4.0 25 0.0 26 25   97.91     LegendNANA
14:00 25.7 4.0 25 0.0 28 17   97.86 25   LegendNANA
15:00 23.8 4.5 29 0.0 30 18   97.84     LegendNANA
16:00 16.9 11.1 69 0.0 30 31   97.92     LegendNANA
17:00 16.0 10.4 70 0.4 34 32   98.03     LegendNANA
18:00 17.0 9.7 62 0.0 35 10   98.04     LegendNANA
19:00 17.3 10.6 64 0.0 33 13   98.08     LegendNANA
20:00 16.2 10.0 67 0.0 33 6   98.10     LegendNANA
21:00 12.0 9.8 87 0.0 10 5   98.14     LegendNANA
22:00 11.5 10.4 93 0.2 15 5   98.18     LegendNANA
23:00 8.1 7.2 94 0.0 19 5   98.22     LegendNANA

Notes on Data Quality.

Legend

  • E = Estimated
  • M = Missing
  • NA = Not Available*
  • [empty] = Indicates an unobserved value
Date modified: